Flag for Switzerland Weather past 2 weeks in Monthey, Valais, Switzerland

Now
75 °F

Mild.


Feels Like: 77 °F
Forecast: 57 / 77 °F
Wind: 6 mph from Northwest

Location: Aigle

Current Time: Jul 25, 2014 at 3:49:01 PM

Latest Report: Jul 25, 2014 at 3:00 PM


Visibility: N/A

Pressure: 29.85 "Hg

Humidity: 57%

Dew point: 59 °F

Location of MontheyLocation

Historic Weather in Monthey — Graph

°F

Monthey temperature yesterday

Maximum temperature yesterday: 73 °F (at 4:00 PM)
Minimum temperature yesterday: 60 °F (at 11:00 PM)
Average temperature yesterday: 67 °F

Past Weeks' High & Low Weather Summary

 TemperatureHumidityPressure
High85 °F (Jul 18, 6:00 PM)100% (Jul 12, 2:00 AM)30.19 "Hg (Jul 12, 2:00 AM)
Low54 °F (Jul 10, 2:00 PM)42% (Jul 19, 4:00 PM)29.80 "Hg (Jul 20, 6:00 PM)
Average66 °F82%29.98 "Hg
* Reported Jul 10 2:00 PM — Jul 25 2:00 PM, Monthey, Weather by CustomWeather, © 2014

Note: Actual official high and low records may vary slightly from our data, if they occured in-between our weather recording intervals... More about our weather records

Advertising

Monthey weather history for previous 24 hours

 ConditionsComfort  
Time TempWeatherWind HumidityBarometerVisibility
2:00 PM
Jul 25
74 °FPartly sunny.6 mph62%29.88 "Hg25 mi
1:00 PM72 °FMild.7 mph66%29.90 "HgN/A
12:00 PM71 °FMild.5 mph64%29.92 "HgN/A
10:00 AM69 °FMild.9 mph64%29.93 "HgN/A
9:00 AM65 °FMild.9 mph74%29.95 "HgN/A
8:00 AM62 °FScattered clouds.9 mph80%29.96 "Hg22 mi
7:00 AM58 °FCool.5 mph88%29.96 "HgN/A
6:00 AM56 °FCool.5 mph94%29.97 "HgN/A
5:00 AM56 °FLight rain. Passing clouds.5 mph96%29.96 "Hg8 mi
4:00 AM57 °FCool.5 mph94%29.96 "HgN/A
3:00 AM57 °FCool.5 mph95%29.96 "HgN/A
2:00 AM58 °FCool.6 mph95%29.96 "HgN/A
1:00 AM58 °FCool.5 mph94%29.96 "HgN/A
12:00 AM60 °FCool.6 mph96%29.96 "HgN/A
11:00 PM
Jul 24
60 °FCool.6 mph92%29.97 "HgN/A
10:00 PM61 °FCool.9 mph88%29.97 "HgN/A
9:00 PM66 °FMild.7 mph94%29.92 "HgN/A
8:00 PM68 °FScattered clouds.1 mph82%29.88 "Hg19 mi
7:00 PM71 °FMild.2 mph69%29.87 "HgN/A
6:00 PM73 °FMild.8 mph66%29.86 "HgN/A
5:00 PM73 °FPartly sunny.5 mph69%29.86 "Hg7 mi
4:00 PM73 °FMild.3 mph69%29.85 "HgN/A
3:00 PM72 °FMild.2 mph72%29.86 "HgN/A
Weather by CustomWeather, © 2014

See weather overviewHow to use our weather pages